User: anonymous   Login
Location: Spruce Knob
(38.6995°N, 79.5330°W)
Time: 05:39:03
(UTC-04:00)
Language:

ITUPSAT 1 - Orbit

View from above orbital plane
View from above orbital plane
View from above satellite
View from above satellite

Ground track
Ground track

The orbit data is extracted from the following two-line orbital elements,

1 35935U 09051E   24110.63083159  .00002855  00000-0  63789-3 0  9999
2 35935  98.4826 353.5596 0008369 150.0707 210.0971 14.57542411773737
Epoch (UTC): 19 April 2024 15:08:23
Eccentricity: 0.0008369
inclination: 98.4826°
perigee height: 695 km
apogee height: 707 km
right ascension of ascending node: 353.5596°
argument of perigee: 150.0707°
revolutions per day: 14.57542411
mean anomaly at epoch: 210.0971°
orbit number at epoch: 77373

The dashed part of the orbit path shows where the satellite is in the earth's shadow,  

DLR